Location: Bílinka
(49.3579°N, 14.3767°E)
Time: 05:50:13
(UTC+00:00)

PSLV R/B - Pass Details

Date: 24 April 2024
Orbit: 467 x 522 km, 97.7° (Epoch: 19 May)

Event Time Altitude Azimuth Distance (km) Brightness Sun altitude
Rises 20:06:59 0° 212° (SSW) 2,624 7.1 -16.7°
Reaches altitude 10° 20:09:58 10° 239° (WSW) 1,755 6.5 -17.0°
Maximum altitude 20:11:57 14° 271° (W) 1,543 6.7 -17.2°
Drops below altitude 10° 20:13:56 10° 302° (WNW) 1,773 7.6 -17.5°
Sets 20:17:01 0° 329° (NNW) 2,678 8.9 -17.8°
